Weather History for KCVX - May, 2013

Change the Weather History Date:

Friday, May 24, 2013

  Actual Average Record
Temperature  
Mean Temperature 42 °F -  
Max Temperature 49 °F 62 °F 86 °F (2012)
Min Temperature 36 °F 48 °F 36 °F (2013)
Degree Days  
Heating Degree Days 22    
Moisture  
Dew Point 34 °F    
Average Humidity 72    
Maximum Humidity 89    
Minimum Humidity 57    
Precipitation  
Precipitation 0.00 in - - ()
Sea Level Pressure  
Sea Level Pressure 30.38 in    
Wind  
Wind Speed 8 mph (NNW)    
Max Wind Speed 10 mph    
Max Gust Speed 16 mph    
Visibility 10 miles    
Events      
Averages and records for this station are not official NWS values.
T = Trace of Precipitation, MM = Missing Value Source: NWS Daily Summary

Daily Weather History Graph

Daily Weather History Graph

Search for Another Location

Airport or City:

Trip Planner

Search our weather history database for the weather conditions in past years. The results will help you decide how hot, cold, wet, or windy it might be!

Date:

Astronomy

May. 24, 2013 Rise Set
Actual Time 6:01 AM EDT 9:14 PM EDT
Civil Twilight 5:26 AM EDT 9:50 PM EDT
Nautical Twilight 4:40 AM EDT 10:36 PM EDT
Astronomical Twilight 3:43 AM EDT 11:34 PM EDT
Moon 8:54 PM EDT (5/24) 5:36 AM EDT (5/24)
Length of Visible Light 16h 24m
Length of Day
15h 12m
Full, 100% of the Moon is Illuminated
May 24
Full
May 25
Full
May 31
Last Quarter
Jun 8
New
Jun 16
First Quarter

Hourly Weather History & Observations

Time (EDT) Temp. Windchill Dew Point Humidity Pressure Visibility Wind Dir Wind Speed Gust Speed Precip Events Conditions
12:15 AM 40.3 °F 34.4 °F 35.2 °F 82% 30.29 in 10.0 mi North 9.2 mph - N/A   Clear
12:34 AM 40.1 °F 33.6 °F 35.6 °F 84% 30.29 in 10.0 mi North 10.4 mph 16.1 mph N/A   Clear
12:54 AM 40.1 °F 34.7 °F 35.8 °F 85% 30.30 in 10.0 mi North 8.1 mph - N/A   Clear
1:15 AM 40.1 °F 34.1 °F 35.6 °F 84% 30.30 in 10.0 mi North 9.2 mph - N/A   Clear
1:34 AM 39.7 °F 34.3 °F 35.8 °F 86% 30.30 in 10.0 mi North 8.1 mph - N/A   Clear
1:54 AM 39.7 °F 34.3 °F 36.3 °F 88% 30.30 in 10.0 mi North 8.1 mph - N/A   Clear
2:15 AM 39.9 °F 35.1 °F 36.7 °F 88% 30.31 in 10.0 mi North 6.9 mph - N/A   Clear
2:34 AM 39.6 °F 35.4 °F 36.1 °F 88% 30.31 in 10.0 mi NNE 5.8 mph - N/A   Clear
2:54 AM 39.2 °F 35.0 °F 34.0 °F 82% 30.31 in 10.0 mi NNE 5.8 mph - N/A   Clear
3:15 AM 38.7 °F 34.3 °F 33.8 °F 83% 30.31 in 10.0 mi NNE 5.8 mph - N/A   Clear
3:34 AM 39.0 °F 34.0 °F 32.0 °F 76% 30.32 in 10.0 mi NNE 6.9 mph - N/A   Clear
3:54 AM 38.7 °F 33.6 °F 31.8 °F 76% 30.32 in 10.0 mi NNE 6.9 mph - N/A   Clear
4:15 AM 38.5 °F 32.7 °F 32.0 °F 78% 30.33 in 10.0 mi NNE 8.1 mph - N/A   Clear
4:34 AM 38.3 °F 31.9 °F 31.5 °F 76% 30.33 in 10.0 mi NNE 9.2 mph - N/A   Clear
4:55 AM 37.6 °F 33.1 °F 31.6 °F 79% 30.35 in 10.0 mi NNE 5.8 mph - N/A   Clear
5:14 AM 37.4 °F 31.4 °F 30.6 °F 76% 30.35 in 10.0 mi NNE 8.1 mph - N/A   Clear
5:34 AM 37.2 °F 31.9 °F 30.4 °F 76% 30.35 in 10.0 mi NNE 6.9 mph - N/A   Clear
5:55 AM 36.7 °F 32.0 °F 30.4 °F 78% 30.36 in 10.0 mi NNE 5.8 mph - N/A   Clear
6:14 AM 36.5 °F 31.8 °F 30.2 °F 78% 30.37 in 10.0 mi NE 5.8 mph - N/A   Clear
6:34 AM 36.7 °F 32.0 °F 30.6 °F 78% 30.37 in 10.0 mi NE 5.8 mph - N/A   Clear
6:55 AM 37.6 °F 34.0 °F 30.9 °F 77% 30.38 in 10.0 mi NNE 4.6 mph - N/A   Clear
7:14 AM 38.7 °F 32.9 °F 31.3 °F 75% 30.39 in 10.0 mi NNE 8.1 mph - N/A   Clear
7:34 AM 39.6 °F 34.7 °F 31.6 °F 73% 30.40 in 10.0 mi NNE 6.9 mph - N/A   Clear
7:55 AM 40.1 °F 35.3 °F 31.6 °F 72% 30.41 in 10.0 mi North 6.9 mph - N/A   Clear
8:14 AM 40.5 °F 34.6 °F 32.0 °F 72% 30.41 in 10.0 mi North 9.2 mph - N/A   Clear
8:34 AM 41.7 °F 36.7 °F 32.7 °F 70% 30.42 in 10.0 mi North 8.1 mph - N/A   Clear
8:54 AM 41.5 °F 35.9 °F 32.9 °F 71% 30.42 in 10.0 mi North 9.2 mph - N/A   Clear
9:14 AM 42.3 °F 36.3 °F 32.7 °F 69% 30.42 in 10.0 mi North 10.4 mph - N/A   Clear
9:35 AM 42.8 °F 38.0 °F 33.1 °F 69% 30.43 in 10.0 mi North 8.1 mph - N/A   Clear
9:54 AM 43.0 °F 38.2 °F 34.0 °F 71% 30.43 in 10.0 mi North 8.1 mph - N/A   Clear
10:14 AM 42.6 °F 36.8 °F 32.4 °F 67% 30.43 in 10.0 mi North 10.4 mph - N/A   Clear
10:35 AM 42.6 °F 36.8 °F 32.7 °F 68% 30.42 in 10.0 mi North 10.4 mph - N/A   Clear
10:54 AM 43.5 °F 38.9 °F 33.8 °F 69% 30.42 in 10.0 mi North 8.1 mph - N/A   Clear
11:15 AM 42.8 °F 38.0 °F 32.9 °F 68% 30.43 in 10.0 mi NNW 8.1 mph - N/A   Clear
11:34 AM 43.3 °F 38.6 °F 34.3 °F 71% 30.43 in 10.0 mi NNW 8.1 mph - N/A   Clear
11:54 AM 43.7 °F 38.1 °F 34.7 °F 71% 30.43 in 10.0 mi NNW 10.4 mph - N/A   Clear
12:15 PM 43.7 °F 38.6 °F 34.9 °F 71% 30.44 in 10.0 mi North 9.2 mph - N/A   Clear
12:34 PM 43.5 °F 37.9 °F 33.6 °F 68% 30.44 in 10.0 mi NNW 10.4 mph - N/A   Clear
12:54 PM 44.6 °F 39.2 °F 35.2 °F 70% 30.44 in 10.0 mi NW 10.4 mph - N/A   Clear
1:14 PM 45.1 °F 39.9 °F 34.0 °F 65% 30.44 in 10.0 mi NNW 10.4 mph - N/A   Clear
1:34 PM 45.9 °F 40.8 °F 32.9 °F 61% 30.43 in 10.0 mi NNW 10.4 mph - N/A   Clear
1:55 PM 48.0 °F - 34.0 °F 58% 30.43 in 10.0 mi North 8.1 mph - N/A   Clear
2:14 PM 47.5 °F - 34.9 °F 62% 30.44 in 10.0 mi WNW 9.2 mph - N/A   Clear
2:34 PM 47.5 °F - 35.8 °F 64% 30.43 in 10.0 mi West 10.4 mph - N/A   Clear
2:55 PM 48.0 °F - 34.9 °F 60% 30.42 in 10.0 mi West 9.2 mph - N/A   Clear
3:14 PM 48.4 °F - 34.0 °F 58% 30.42 in 10.0 mi WNW 6.9 mph - N/A   Clear
3:34 PM 49.5 °F - 34.7 °F 57% 30.42 in 10.0 mi West 4.6 mph - N/A   Clear
3:55 PM 49.5 °F - 37.2 °F 63% 30.42 in 10.0 mi West 9.2 mph - N/A   Clear
4:14 PM 48.9 °F - 35.6 °F 60% 30.41 in 10.0 mi West 9.2 mph - N/A   Clear
4:34 PM 49.5 °F - 35.4 °F 58% 30.42 in 10.0 mi West 9.2 mph - N/A   Clear
4:55 PM 49.6 °F - 36.5 °F 61% 30.41 in 10.0 mi West 9.2 mph - N/A   Clear
5:14 PM 48.6 °F - 36.9 °F 64% 30.40 in 10.0 mi West 10.4 mph - N/A   Clear
5:34 PM 48.6 °F - 36.7 °F 64% 30.39 in 10.0 mi West 10.4 mph - N/A   Clear
5:55 PM 48.4 °F - 35.8 °F 62% 30.39 in 10.0 mi West 9.2 mph - N/A   Clear
6:14 PM 48.4 °F - 35.2 °F 60% 30.39 in 10.0 mi West 8.1 mph - N/A   Clear
6:35 PM 48.2 °F - 34.5 °F 59% 30.38 in 10.0 mi West 6.9 mph - N/A   Clear
6:54 PM 48.4 °F - 35.1 °F 60% 30.38 in 10.0 mi West 5.8 mph - N/A   Clear
7:14 PM 48.6 °F - 34.7 °F 59% 30.37 in 10.0 mi West 6.9 mph - N/A   Clear
7:35 PM 48.2 °F - 34.3 °F 59% 30.37 in 10.0 mi West 5.8 mph - N/A   Clear
7:54 PM 47.5 °F - 34.7 °F 61% 30.37 in 10.0 mi West 5.8 mph - N/A   Clear
8:15 PM 45.7 °F 43.4 °F 33.4 °F 62% 30.37 in 10.0 mi West 4.6 mph - N/A   Clear
8:34 PM 44.1 °F 41.5 °F 34.0 °F 68% 30.37 in 10.0 mi West 4.6 mph - N/A   Clear
8:54 PM 43.7 °F 41.1 °F 35.1 °F 72% 30.36 in 10.0 mi West 4.6 mph - N/A   Clear
9:15 PM 42.3 °F 39.4 °F 34.9 °F 75% 30.36 in 10.0 mi West 4.6 mph - N/A   Clear
9:34 PM 41.0 °F 37.1 °F 34.3 °F 77% 30.37 in 10.0 mi West 5.8 mph - N/A   Clear
9:55 PM 40.5 °F 38.4 °F 34.2 °F 78% 30.38 in 10.0 mi WSW 3.5 mph - N/A   Clear
10:14 PM 40.6 °F 38.6 °F 34.7 °F 79% 30.38 in 10.0 mi West 3.5 mph - N/A   Clear
10:34 PM 39.7 °F 36.5 °F 34.9 °F 83% 30.39 in 10.0 mi West 4.6 mph - N/A   Clear
10:55 PM 39.2 °F - 35.4 °F 86% 30.39 in 10.0 mi Calm Calm - N/A   Clear
11:14 PM 39.0 °F 35.7 °F 35.1 °F 86% 30.39 in 10.0 mi West 4.6 mph - N/A   Clear
11:34 PM 38.3 °F 35.9 °F 34.9 °F 87% 30.39 in 10.0 mi West 3.5 mph - N/A   Clear
11:55 PM 38.3 °F 35.9 °F 35.2 °F 89% 30.40 in 10.0 mi SW 3.5 mph - N/A   Clear